When you browse on this site, cookies collect data to enhance your experience and personalize the content and advertising you see.
Visit our Privacy Policy to learn more. By continuing to use the site, you agree to this use of cookies and data.
  • In Switzerland
  • List of Countries
  • For 7 days
  • Water Temperature
  • Weather Map
  • Weather Widgets
  • user-avatar
    Login

    Hourly Weather Bolshoe Sonino

    Today, 18 August, Sunday

    Time Temperature Precipitation Wind Pressure Humidity
    00:00 +17°C° 0.2 mm 3 mps 740 mmHg 98%
    01:00 +17°C° 0.2 mm 3 mps 740 mmHg 98%
    02:00 +17°C° 0.2 mm 3 mps 740 mmHg 98%
    03:00 +16°C° 0 mm 2 mps 740 mmHg 98%
    04:00 +16°C° 0 mm 2 mps 740 mmHg 98%
    05:00 +16°C° 0 mm 2 mps 740 mmHg 98%
    06:00 +17°C° 0 mm 2 mps 740 mmHg 96%
    07:00 +18°C° 0 mm 2 mps 741 mmHg 93%
    08:00 +18°C° 0 mm 2 mps 741 mmHg 91%
    09:00 +19°C° 0.1 mm 2 mps 741 mmHg 87%
    10:00 +20°C° 0.1 mm 2 mps 741 mmHg 83%
    11:00 +21°C° 0.1 mm 2 mps 741 mmHg 79%
    12:00 +21°C° 0.7 mm 2 mps 742 mmHg 80%
    13:00 +21°C° 0.7 mm 3 mps 742 mmHg 80%
    14:00 +22°C° 0.7 mm 3 mps 742 mmHg 80%
    15:00 +21°C° 0.2 mm 3 mps 742 mmHg 82%
    16:00 +20°C° 0.2 mm 3 mps 743 mmHg 83%
    17:00 +20°C° 0.2 mm 4 mps 743 mmHg 85%
    18:00 +18°C° 0 mm 3 mps 743 mmHg 88%
    19:00 +17°C° 0 mm 3 mps 744 mmHg 92%
    20:00 +15°C° 0 mm 2 mps 744 mmHg 95%
    21:00 +15°C° 0 mm 2 mps 744 mmHg 96%
    22:00 +15°C° 0 mm 2 mps 744 mmHg 96%
    23:00 +14°C° 0 mm 2 mps 745 mmHg 97%

    Tomorrow, 19 August, Monday

    Time Temperature Precipitation Wind Pressure Humidity
    00:00 +14°C° 0 mm 2 mps 745 mmHg 97%
    01:00 +14°C° 0 mm 2 mps 745 mmHg 97%
    02:00 +13°C° 0 mm 3 mps 746 mmHg 97%
    03:00 +13°C° 0 mm 3 mps 746 mmHg 96%
    04:00 +14°C° 0 mm 3 mps 746 mmHg 95%
    05:00 +14°C° 0 mm 3 mps 747 mmHg 94%
    06:00 +16°C° 0 mm 3 mps 747 mmHg 92%
    07:00 +17°C° 0 mm 3 mps 747 mmHg 89%
    08:00 +17°C° 0 mm 3 mps 748 mmHg 87%
    09:00 +19°C° 0 mm 3 mps 748 mmHg 80%
    10:00 +21°C° 0 mm 3 mps 748 mmHg 74%
    11:00 +22°C° 0 mm 3 mps 749 mmHg 68%
    12:00 +24°C° 0 mm 3 mps 749 mmHg 65%
    13:00 +25°C° 0 mm 3 mps 749 mmHg 63%
    14:00 +25°C° 0 mm 3 mps 749 mmHg 61%
    15:00 +25°C° 0 mm 2 mps 749 mmHg 64%
    16:00 +25°C° 0 mm 2 mps 749 mmHg 68%
    17:00 +25°C° 0 mm 1 mps 749 mmHg 71%
    18:00 +23°C° 0 mm 1 mps 749 mmHg 76%
    19:00 +21°C° 0 mm 1 mps 750 mmHg 80%
    20:00 +19°C° 0 mm 1 mps 750 mmHg 85%
    21:00 +19°C° 0 mm 1 mps 750 mmHg 86%
    22:00 +18°C° 0 mm 1 mps 750 mmHg 87%
    23:00 +18°C° 0 mm 1 mps 750 mmHg 88%

    Day after tomorrow, 20 August, Tuesday

    Time Temperature Precipitation Wind Pressure Humidity
    00:00 +16°C° 0 mm 1 mps 750 mmHg 88%
    01:00 +16°C° 0 mm 1 mps 751 mmHg 88%
    02:00 +16°C° 0 mm 1 mps 751 mmHg 88%
    03:00 +16°C° 0 mm 1 mps 751 mmHg 88%
    04:00 +16°C° 0 mm 1 mps 751 mmHg 88%
    05:00 +16°C° 0 mm 2 mps 751 mmHg 88%
    06:00 +18°C° 0 mm 2 mps 751 mmHg 83%
    07:00 +19°C° 0 mm 2 mps 751 mmHg 78%
    08:00 +21°C° 0 mm 2 mps 752 mmHg 74%
    09:00 +24°C° 0 mm 2 mps 752 mmHg 70%
    10:00 +25°C° 0 mm 3 mps 752 mmHg 67%
    11:00 +26°C° 0 mm 3 mps 752 mmHg 63%
    12:00 +27°C° 0 mm 3 mps 751 mmHg 63%
    13:00 +27°C° 0 mm 3 mps 751 mmHg 62%
    14:00 +28°C° 0 mm 3 mps 751 mmHg 61%
    15:00 +27°C° 0 mm 2 mps 751 mmHg 65%
    16:00 +27°C° 0 mm 2 mps 751 mmHg 68%
    17:00 +27°C° 0 mm 1 mps 751 mmHg 71%
    18:00 +25°C° 0 mm 1 mps 751 mmHg 75%
    19:00 +24°C° 0 mm 2 mps 751 mmHg 80%
    20:00 +21°C° 0 mm 2 mps 752 mmHg 84%
    21:00 +21°C° 0 mm 2 mps 752 mmHg 85%
    22:00 +20°C° 0 mm 2 mps 752 mmHg 86%
    23:00 +20°C° 0 mm 2 mps 752 mmHg 88%

    21 August, Wednesday

    Time Temperature Precipitation Wind Pressure Humidity
    00:00 +20°C° 0 mm 1 mps 752 mmHg 89%
    01:00 +20°C° 0 mm 1 mps 752 mmHg 90%
    02:00 +20°C° 0 mm 1 mps 752 mmHg 91%
    03:00 +20°C° 0 mm 1 mps 752 mmHg 91%
    04:00 +20°C° 0 mm 1 mps 752 mmHg 91%
    05:00 +20°C° 0 mm 1 mps 752 mmHg 91%
    06:00 +21°C° 0 mm 1 mps 752 mmHg 86%
    07:00 +23°C° 0 mm 1 mps 752 mmHg 81%
    08:00 +25°C° 0 mm 1 mps 753 mmHg 76%
    09:00 +26°C° 0 mm 1 mps 753 mmHg 72%
    10:00 +27°C° 0 mm 1 mps 752 mmHg 67%
    11:00 +29°C° 0 mm 1 mps 752 mmHg 63%
    12:00 +29°C° 0 mm 1 mps 752 mmHg 61%
    13:00 +29°C° 0 mm 1 mps 752 mmHg 59%
    14:00 +30°C° 0 mm 1 mps 752 mmHg 57%
    15:00 +29°C° 0 mm 1 mps 751 mmHg 61%
    16:00 +29°C° 0 mm 1 mps 751 mmHg 65%
    17:00 +28°C° 0 mm 1 mps 751 mmHg 69%
    18:00 +27°C° 0 mm 1 mps 750 mmHg 73%
    19:00 +25°C° 0 mm 1 mps 750 mmHg 76%
    20:00 +24°C° 0 mm 1 mps 750 mmHg 80%
    21:00 +23°C° 0 mm 2 mps 750 mmHg 82%
    22:00 +23°C° 0 mm 2 mps 750 mmHg 83%
    23:00 +21°C° 0 mm 2 mps 750 mmHg 85%

    22 August, Thursday

    Time Temperature Precipitation Wind Pressure Humidity
    00:00 +21°C° 0 mm 2 mps 750 mmHg 86%
    01:00 +20°C° 0 mm 2 mps 750 mmHg 87%
    02:00 +19°C° 0 mm 2 mps 749 mmHg 88%
    03:00 +19°C° 0 mm 2 mps 749 mmHg 89%
    04:00 +19°C° 0 mm 2 mps 749 mmHg 89%
    05:00 +19°C° 0 mm 2 mps 749 mmHg 90%
    06:00 +20°C° 0 mm 2 mps 749 mmHg 85%
    07:00 +21°C° 0 mm 2 mps 749 mmHg 81%
    08:00 +24°C° 0 mm 3 mps 749 mmHg 76%
    09:00 +25°C° 0 mm 2 mps 749 mmHg 71%
    10:00 +26°C° 0 mm 2 mps 749 mmHg 67%
    11:00 +27°C° 0 mm 2 mps 749 mmHg 62%
    12:00 +27°C° 0 mm 3 mps 749 mmHg 64%
    13:00 +27°C° 0 mm 3 mps 749 mmHg 65%
    14:00 +26°C° 0 mm 4 mps 749 mmHg 67%
    15:00 +25°C° 0 mm 4 mps 749 mmHg 72%
    16:00 +23°C° 0 mm 4 mps 749 mmHg 76%
    17:00 +21°C° 0 mm 5 mps 749 mmHg 81%
    18:00 +20°C° 0.1 mm 4 mps 750 mmHg 82%
    19:00 +19°C° 0.1 mm 4 mps 750 mmHg 82%
    20:00 +19°C° 0.1 mm 4 mps 750 mmHg 83%
    21:00 +18°C° 0.2 mm 3 mps 750 mmHg 84%
    22:00 +18°C° 0.2 mm 3 mps 751 mmHg 85%
    23:00 +18°C° 0.2 mm 3 mps 751 mmHg 86%

    23 August, Friday

    Time Temperature Precipitation Wind Pressure Humidity
    00:00 +17°C° 0.1 mm 3 mps 751 mmHg 86%
    01:00 +17°C° 0.1 mm 3 mps 751 mmHg 86%
    02:00 +17°C° 0.1 mm 3 mps 751 mmHg 85%
    03:00 +16°C° 0 mm 3 mps 751 mmHg 86%
    04:00 +16°C° 0 mm 3 mps 751 mmHg 87%
    05:00 +16°C° 0 mm 3 mps 751 mmHg 88%
    06:00 +16°C° 0 mm 3 mps 752 mmHg 85%
    07:00 +17°C° 0 mm 3 mps 752 mmHg 83%
    08:00 +18°C° 0 mm 3 mps 752 mmHg 80%
    09:00 +19°C° 0 mm 3 mps 752 mmHg 74%
    10:00 +20°C° 0 mm 3 mps 752 mmHg 68%
    11:00 +22°C° 0 mm 3 mps 752 mmHg 62%
    12:00 +22°C° 0 mm 3 mps 752 mmHg 61%
    13:00 +22°C° 0 mm 3 mps 751 mmHg 60%
    14:00 +22°C° 0 mm 3 mps 751 mmHg 58%
    15:00 +22°C° 0 mm 3 mps 751 mmHg 61%
    16:00 +21°C° 0 mm 2 mps 751 mmHg 64%
    17:00 +21°C° 0 mm 2 mps 751 mmHg 67%
    18:00 +19°C° 0 mm 2 mps 751 mmHg 70%
    19:00 +18°C° 0 mm 2 mps 751 mmHg 72%
    20:00 +16°C° 0 mm 2 mps 751 mmHg 75%
    21:00 +16°C° 0 mm 2 mps 751 mmHg 76%
    22:00 +15°C° 0 mm 2 mps 751 mmHg 76%
    23:00 +15°C° 0 mm 2 mps 751 mmHg 77%
    Show more